Beale AFB, CA

2:51 AM PDT on May 25, 2018 (GMT -0700)
Beale Air Force Base

Weather History for KBAB - March, 2013

Change the Weather History Date:

Wednesday, March 6, 2013

  Actual Average Record
Temperature  
Mean Temperature 48 °F -  
Max Temperature 56 °F 62 °F 71 °F (2007)
Min Temperature 41 °F 42 °F 36 °F (2018)
Degree Days  
Heating Degree Days 16    
Moisture  
Dew Point 44 °F    
Average Humidity 82    
Maximum Humidity 96    
Minimum Humidity 51    
Precipitation  
Precipitation 0.15 in - - ()
Sea Level Pressure  
Sea Level Pressure 30.00 in    
Wind  
Wind Speed 20 mph (SSE)    
Max Wind Speed 28 mph    
Max Gust Speed 36 mph    
Visibility 7 miles    
Events Rain    
Averages and records for this station are not official NWS values.
T = Trace of Precipitation, MM = Missing Value Source: NWS Daily Summary

Daily Weather History Graph

Daily Weather History Graph

Search for Another Location

Airport or City:

Astronomy

Mar. 06, 2013 Rise Set
Actual Time 6:30 AM PST 6:03 PM PST
Civil Twilight 6:03 AM PST 6:30 PM PST
Nautical Twilight 5:32 AM PST 7:01 PM PST
Astronomical Twilight 5:01 AM PST 7:32 PM PST
Moon 2:42 AM PST (3/6) 12:53 PM PST (3/6)
Length of Visible Light 12h 26m
Length of Day
11h 33m
Waning Crescent, 29% of the Moon is Illuminated
Mar 6
Waning Crescent
Mar 11
New
Mar 19
First Quarter
Mar 27
Full
Apr 2
Last Quarter

Hourly Weather History & Observations

Time (PST) Temp. Windchill Dew Point Humidity Pressure Visibility Wind Dir Wind Speed Gust Speed Precip Events Conditions
12:02 AM 50.0 °F - 46.4 °F 87% 29.82 in 10.0 mi SSE 23.0 mph - N/A   Overcast
12:12 AM 48.2 °F - 46.4 °F 93% 29.82 in 5.0 mi SSE 23.0 mph 28.8 mph N/A   Overcast
12:22 AM 48.2 °F - 46.4 °F 93% 29.83 in 2.5 mi SE 20.7 mph - N/A   Overcast
12:23 AM 48.2 °F - 46.4 °F 93% 29.83 in 2.5 mi SE 19.6 mph - N/A Rain Light Rain
12:33 AM 48.2 °F - 46.4 °F 93% 29.83 in 2.5 mi SE 19.6 mph 28.8 mph N/A Rain Light Rain
12:39 AM 48.2 °F - 46.4 °F 93% 29.83 in 3.0 mi SE 20.7 mph 28.8 mph N/A   Overcast
12:48 AM 48.2 °F - 46.4 °F 93% 29.83 in 3.0 mi SE 20.7 mph - N/A Rain Light Rain
12:53 AM 48.2 °F - 46.4 °F 93% 29.83 in 3.0 mi SE 24.2 mph - N/A   Overcast
12:58 AM 47.7 °F - 45.9 °F 93% 30.06 in 3.0 mi SE 20.7 mph - 0.04 in   Overcast
1:08 AM 48.2 °F - 46.4 °F 93% 29.83 in 9.0 mi SE 19.6 mph 25.3 mph N/A   Overcast
1:18 AM 48.2 °F - 44.6 °F 87% 29.83 in 8.0 mi SE 21.9 mph - N/A   Overcast
1:28 AM 48.2 °F - 44.6 °F 87% 29.83 in 6.0 mi SE 19.6 mph - N/A   Overcast
1:32 AM 48.2 °F - 44.6 °F 87% 29.83 in 6.0 mi SE 20.7 mph - N/A Rain Light Rain
1:41 AM 48.2 °F - 46.4 °F 93% 29.83 in 6.0 mi SE 20.7 mph - N/A   Overcast
1:47 AM 48.2 °F - 46.4 °F 93% 29.83 in 5.0 mi SE 20.7 mph - N/A Rain Light Rain
1:58 AM 47.8 °F - 45.7 °F 92% 30.05 in 4.0 mi SE 19.6 mph - 0.01 in Rain Light Rain
2:03 AM 48.2 °F - 46.4 °F 93% 29.81 in 5.0 mi SE 20.7 mph 27.6 mph N/A   Overcast
2:13 AM 48.2 °F - 44.6 °F 87% 29.81 in 7.0 mi SE 20.7 mph - N/A   Overcast
2:21 AM 48.2 °F - 44.6 °F 87% 29.81 in 3.0 mi SSE 23.0 mph - N/A Rain Light Rain
2:32 AM 48.2 °F - 44.6 °F 87% 29.81 in 4.0 mi SSE 24.2 mph 33.4 mph N/A   Overcast
2:42 AM 48.2 °F - 46.4 °F 93% 29.81 in 5.0 mi SSE 19.6 mph 29.9 mph N/A   Overcast
2:52 AM 48.2 °F - 44.6 °F 87% 29.82 in 5.0 mi SSE 25.3 mph 28.8 mph N/A Rain Light Rain
2:58 AM 48.0 °F - 45.3 °F 90% 30.05 in 3.0 mi SSE 27.6 mph 35.7 mph 0.04 in Rain Light Rain
3:09 AM 48.2 °F - 46.4 °F 93% 29.82 in 3.0 mi South 25.3 mph 28.8 mph N/A   Overcast
3:14 AM 48.2 °F - 44.6 °F 87% 29.82 in 7.0 mi South 20.7 mph 28.8 mph N/A Rain Light Rain
3:24 AM 48.2 °F - 44.6 °F 87% 29.81 in 10.0 mi SSE 27.6 mph 33.4 mph N/A   Overcast
3:44 AM 48.2 °F - 46.4 °F 93% 29.81 in 10.0 mi SSE 26.5 mph 32.2 mph N/A   Overcast
3:58 AM 47.5 °F - 45.5 °F 93% 30.05 in 10.0 mi SSE 23.0 mph 33.4 mph 0.04 in   Overcast
4:48 AM 48.2 °F - 44.6 °F 87% 29.86 in 5.0 mi South 18.4 mph - N/A   Overcast
4:56 AM 48.2 °F - 46.4 °F 93% 29.86 in 6.0 mi South 18.4 mph - N/A   Light Drizzle
4:58 AM 47.8 °F - 45.9 °F 93% 30.09 in 6.0 mi South 18.4 mph - 0.02 in   Light Drizzle
5:01 AM 48.2 °F - 46.4 °F 93% 29.86 in 9.0 mi South 19.6 mph 25.3 mph N/A   Overcast
5:11 AM 48.2 °F - 46.4 °F 93% 29.86 in 10.0 mi South 18.4 mph - N/A   Mostly Cloudy
5:58 AM 47.1 °F - 46.0 °F 96% 30.10 in 10.0 mi SSE 18.4 mph - 0.00 in   Partly Cloudy
6:58 AM 47.7 °F - 46.4 °F 95% 30.14 in 10.0 mi SSE 17.3 mph - N/A   Overcast
7:58 AM 49.1 °F - 45.0 °F 86% 30.18 in 10.0 mi South 19.6 mph 25.3 mph N/A   Clear
8:58 AM 51.1 °F - 42.8 °F 73% 30.22 in 10.0 mi SSE 20.7 mph - N/A   Mostly Cloudy
9:28 AM 53.6 °F - 42.8 °F 67% 30.00 in 10.0 mi South 21.9 mph - N/A   Overcast
9:48 AM 53.6 °F - 41.0 °F 62% 30.01 in 10.0 mi South 18.4 mph - N/A   Mostly Cloudy
9:58 AM 53.4 °F - 42.1 °F 65% 30.24 in 10.0 mi South 18.4 mph - N/A   Mostly Cloudy
10:58 AM 55.6 °F - 41.5 °F 59% 30.26 in 10.0 mi South 19.6 mph 28.8 mph N/A   Overcast
11:58 AM 56.5 °F - 40.6 °F 55% 30.26 in 10.0 mi South 24.2 mph 27.6 mph N/A   Mostly Cloudy
12:58 PM 54.9 °F - 40.3 °F 58% 30.27 in 10.0 mi South 17.3 mph - N/A   Mostly Cloudy
1:58 PM 53.8 °F - 40.6 °F 61% 30.26 in 10.0 mi South 19.6 mph 24.2 mph N/A   Mostly Cloudy
2:15 PM 55.4 °F - 41.0 °F 58% 30.03 in 10.0 mi WSW 13.8 mph - N/A   Mostly Cloudy
2:58 PM 56.3 °F - 41.0 °F 57% 30.25 in 10.0 mi South 18.4 mph - N/A   Scattered Clouds
3:58 PM 56.5 °F - 38.3 °F 51% 30.26 in 10.0 mi South 15.0 mph - N/A   Mostly Cloudy
4:58 PM 54.5 °F - 37.9 °F 54% 30.25 in 10.0 mi South 11.5 mph - N/A   Mostly Cloudy
5:58 PM 50.5 °F - 39.7 °F 66% 30.25 in 10.0 mi South 6.9 mph - N/A   Mostly Cloudy
6:58 PM 47.7 °F - 38.5 °F 70% 30.24 in 10.0 mi ESE 9.2 mph - N/A   Mostly Cloudy
7:58 PM 45.7 °F 42.7 °F 37.6 °F 73% 30.24 in 10.0 mi ESE 5.8 mph - N/A   Clear
8:58 PM 44.8 °F 41.0 °F 37.4 °F 75% 30.25 in 10.0 mi East 6.9 mph - N/A   Clear
9:58 PM 43.7 °F 39.7 °F 37.2 °F 78% 30.24 in 10.0 mi ESE 6.9 mph - N/A   Partly Cloudy
10:58 PM 41.4 °F 38.4 °F 36.7 °F 83% 30.24 in 10.0 mi ENE 4.6 mph - N/A   Clear
11:58 PM 43.0 °F 40.3 °F 37.9 °F 82% 30.23 in 10.0 mi ENE 4.6 mph - N/A   Mostly Cloudy